RH
12 13 12 12 12 12 11 11 11 11 10 10 10 10 9 8 8 6 5 5 5 5 6 7 7 9 9 9 9 10 10 10 10 11 11 11 12 12 12 13 13 15 17 20 21 22 23 27 30 34 37 40 41 42 43 44 44 45 45 41 38 36 36 35 34 32 30 28 27 25 23 21 20 19 15 13 10 8 6 6 9 16 23 20 11 8
12 12 12 12 12 12 12 12 12 12 12 12 12 12 13 12 11 10 9 7 6 5 7 8 8 10 11 9 10 10 11 12 12 13 13 13 14 14 14 15 15 17 20 22 23 24 26 30 33 36 38 40 42 44 45 47 48 48 46 42 39 38 38 37 36 33 32 30 29 26 24 23 22 20 17 14 11 8 6 6 10 18 23 20 12 7
12 12 12 12 12 12 12 12 12 12 13 13 13 14 14 14 14 13 12 10 8 6 7 8 8 11 12 11 11 12 13 13 13 14 14 14 15 16 16 16 17 20 22 24 25 26 29 32 35 36 38 39 42 46 49 50 50 49 46 42 41 41 40 40 37 35 34 33 31 28 26 24 23 21 19 15 11 9 7 6 10 19 24 20 12 7
12 11 11 11 12 13 13 13 13 13 14 14 14 15 15 16 15 14 13 11 9 8 7 7 7 10 14 14 12 13 14 14 15 16 17 16 17 18 18 18 19 22 23 25 27 28 31 34 35 35 36 38 42 48 52 52 50 48 45 42 42 43 43 42 39 37 36 35 32 30 28 25 24 23 20 16 12 9 7 7 11 20 24 20 12 8
11 11 11 12 13 13 14 14 14 14 15 15 15 15 16 16 16 15 14 12 10 10 9 9 7 8 15 17 14 13 15 15 16 18 18 18 18 19 20 21 22 23 24 26 29 30 32 34 34 34 34 36 43 50 53 52 50 47 44 43 43 44 45 44 42 40 39 37 35 32 30 27 25 23 21 17 13 10 7 7 13 21 25 21 13 8
10 10 11 12 13 14 14 15 15 15 15 16 16 16 16 17 17 17 15 12 10 11 12 11 8 6 12 18 16 13 16 18 18 20 20 20 20 21 23 24 25 25 26 27 30 32 33 34 33 31 31 34 43 50 52 51 48 46 45 44 44 46 47 47 45 43 42 40 37 34 31 29 26 24 22 19 14 10 7 7 14 23 26 22 14 8
10 11 12 13 14 15 15 15 15 15 15 16 17 17 17 17 18 18 16 13 10 10 12 13 11 7 9 19 19 15 18 21 21 22 23 23 23 24 26 27 26 27 28 30 33 34 34 34 33 29 27 32 42 48 50 50 49 47 46 45 46 47 49 50 49 47 45 42 39 36 34 31 27 25 23 20 15 11 8 8 15 24 27 23 15 8
11 12 13 14 14 15 15 16 16 16 16 17 17 17 18 18 19 19 16 14 11 10 13 15 14 9 8 17 19 15 19 22 23 25 25 26 27 28 29 29 29 30 32 34 37 38 37 36 32 26 24 30 39 45 48 51 50 49 47 47 48 49 51 53 52 51 49 45 41 38 36 33 29 26 24 21 16 11 8 8 15 24 28 24 16 9
11 13 14 14 15 15 16 17 17 18 17 17 18 17 18 19 19 18 15 14 11 10 15 16 17 13 10 18 20 16 18 22 24 27 28 30 32 32 32 32 32 34 36 38 40 41 41 38 32 25 23 29 37 42 46 50 52 51 50 50 50 51 53 55 55 55 53 48 44 40 38 36 31 27 25 22 17 12 8 8 15 25 29 26 17 10
13 14 14 14 16 16 17 18 18 18 18 18 18 18 19 19 18 17 14 14 12 11 15 16 18 16 13 19 22 17 18 22 24 28 30 34 37 37 37 36 36 38 41 43 44 45 44 41 35 26 23 28 35 40 42 47 52 54 53 53 53 54 56 59 59 58 57 52 46 43 40 38 33 28 25 22 18 12 9 8 14 26 32 27 18 11
14 13 14 15 16 17 18 19 19 19 19 19 19 19 20 18 17 16 14 14 13 12 14 15 17 18 17 23 26 22 21 23 24 29 34 39 42 43 42 41 41 43 45 47 48 49 49 45 39 29 24 27 33 37 38 42 50 56 59 58 57 58 59 63 64 61 60 56 50 45 42 40 36 31 25 22 18 12 9 10 15 27 34 29 20 12
14 14 16 16 17 18 18 19 20 20 20 20 20 20 19 18 16 14 14 14 13 13 14 13 14 17 22 29 32 30 28 26 26 31 36 42 45 47 48 47 47 47 48 51 52 53 53 51 45 33 24 25 30 35 36 38 44 54 62 64 61 60 62 67 69 66 64 60 53 48 44 43 39 33 27 22 19 13 9 11 16 28 36 33 23 13
15 16 17 17 19 19 19 20 20 20 20 20 21 21 19 18 15 13 13 13 13 12 11 11 13 15 21 32 37 37 34 33 33 33 37 43 47 51 54 53 52 52 52 54 56 57 58 56 51 39 26 23 27 32 35 36 39 48 60 67 66 63 62 68 72 72 69 63 57 52 47 45 42 36 28 22 19 14 9 10 16 28 37 35 27 15
15 16 18 19 19 20 20 20 20 20 20 19 21 22 21 21 19 15 13 12 11 10 9 9 11 13 19 32 40 37 35 37 38 37 40 47 52 56 60 59 57 57 57 59 60 61 62 60 57 46 30 22 23 28 32 34 37 43 54 65 69 66 63 65 73 76 73 67 60 54 48 45 43 38 30 23 19 14 9 8 14 28 39 38 30 19
13 14 17 18 18 19 18 18 19 19 18 18 20 21 21 25 25 21 16 14 11 8 8 8 10 14 20 34 45 40 37 40 39 39 46 53 59 63 64 63 62 63 64 64 64 65 65 63 62 53 36 24 22 26 30 33 38 42 52 66 71 69 64 63 70 78 77 71 64 56 49 46 44 40 33 23 18 15 10 7 12 26 41 43 32 21
11 13 15 15 16 16 16 16 17 18 17 16 17 19 22 24 25 23 17 15 14 9 7 7 9 14 20 38 55 52 45 43 41 43 51 58 64 67 68 68 69 70 71 70 68 67 68 67 66 61 46 29 23 25 29 33 37 44 58 72 74 70 66 65 69 78 81 76 66 56 49 47 44 41 35 25 18 15 11 7 10 23 41 46 36 24
10 11 11 12 13 12 14 14 14 16 16 15 15 18 20 20 21 22 18 14 15 12 8 8 9 11 18 38 64 75 69 55 47 50 54 59 68 72 73 75 77 79 78 76 73 70 71 72 71 68 56 37 26 26 29 33 42 56 70 78 76 71 69 69 71 78 85 80 66 54 49 46 44 42 37 27 18 15 13 8 8 20 39 48 41 29
9 9 9 10 11 11 12 12 12 14 14 14 16 17 18 18 18 20 19 15 16 14 10 9 9 10 18 37 65 89 90 70 59 56 53 62 76 79 81 84 85 87 86 81 77 75 76 77 75 72 60 41 29 29 37 49 62 73 79 78 76 73 73 74 76 81 88 82 65 52 47 45 44 43 37 28 19 14 13 10 7 14 34 49 46 34
9 9 9 10 10 11 11 11 12 13 13 14 15 16 20 20 19 21 20 17 18 18 13 10 9 9 20 38 59 80 84 75 65 56 55 71 84 85 89 92 92 93 91 86 82 80 81 81 78 72 57 41 37 47 62 74 80 81 79 76 74 75 76 78 83 89 92 84 66 51 45 42 42 43 39 30 21 15 12 10 7 11 29 49 52 40
10 9 9 9 10 11 10 10 11 11 13 13 13 17 20 21 23 23 21 21 25 26 21 15 10 8 19 38 55 71 81 80 70 59 64 80 86 90 96 98 97 97 94 89 85 85 87 87 80 68 55 48 57 74 84 85 81 78 76 74 73 74 77 83 90 96 95 84 66 51 44 40 39 42 41 34 24 17 13 11 8 9 24 48 56 47
10 9 9 8 9 9 9 10 11 12 13 12 13 18 20 22 24 22 20 22 28 34 32 24 14 8 19 39 57 74 85 84 75 69 75 83 87 96 102 103 100 96 94 92 91 93 93 88 79 69 62 65 78 89 88 81 76 75 74 72 73 76 81 87 95 99 96 82 65 53 44 38 38 41 41 37 27 18 14 12 10 9 19 44 61 55
9 8 7 8 8 8 9 10 11 11 11 12 14 17 21 24 25 25 22 20 28 36 36 33 23 9 18 45 67 79 82 79 78 77 79 85 92 100 103 104 103 98 96 96 97 99 96 88 82 76 74 80 88 88 80 75 73 72 73 74 76 81 86 92 97 98 94 81 64 53 45 39 39 41 42 41 31 21 15 13 11 10 14 36 61 63
8 7 7 7 7 8 9 10 11 12 12 14 15 18 22 24 27 31 29 28 32 30 32 43 31 11 27 61 77 78 76 76 79 79 83 90 95 100 101 102 101 99 99 101 102 101 97 94 91 85 84 89 88 81 75 74 74 73 76 80 85 90 94 97 99 98 93 81 66 54 46 41 41 42 44 45 38 26 18 14 12 10 12 29 57 69
7 7 7 7 8 10 11 13 14 15 15 16 17 21 25 27 31 37 39 42 36 26 40 56 34 19 47 72 74 76 77 75 78 83 91 95 93 94 97 95 95 98 101 103 104 102 100 101 96 90 91 91 83 77 77 78 79 79 83 90 95 99 100 100 100 98 93 82 69 57 49 44 44 44 46 48 45 34 23 16 14 12 12 23 49 71
8 9 10 10 10 10 12 14 16 15 16 17 19 24 28 31 39 44 46 45 34 31 52 60 37 37 63 71 73 82 79 72 79 91 100 101 95 91 88 87 92 97 100 102 102 102 102 99 94 92 93 88 81 80 84 86 88 88 89 94 98 100 100 100 99 97 94 84 73 64 56 49 46 46 49 52 50 42 30 21 17 14 14 21 41 67
10 12 14 14 13 13 13 14 14 14 15 16 19 25 29 36 44 48 46 41 40 44 52 54 50 51 59 68 78 81 75 72 81 92 99 101 100 95 90 90 95 98 99 99 99 101 100 95 94 97 96 91 89 90 93 95 95 93 91 92 95 96 96 96 96 97 94 86 78 72 64 56 52 51 53 56 55 48 38 29 22 16 16 22 37 61
13 14 16 16 16 16 16 16 16 15 15 17 21 27 35 43 46 48 47 47 56 57 47 57 71 55 44 61 70 65 67 71 73 79 85 88 86 83 84 88 92 94 96 98 100 100 97 95 98 101 100 99 99 99 98 99 98 96 93 92 92 91 90 91 92 93 93 88 83 79 73 66 62 60 60 62 61 55 44 36 29 21 20 25 36 56
14 14 15 16 16 16 16 17 17 17 18 20 25 33 44 50 49 52 58 62 69 63 47 57 74 58 46 57 59 55 61 62 60 64 69 71 68 65 69 74 77 84 91 96 99 98 97 98 101 101 101 102 102 101 101 100 98 95 91 90 91 89 90 90 89 89 89 88 86 84 81 77 74 72 71 71 69 62 51 42 36 28 24 28 37 54
14 13 14 15 15 16 19 20 20 23 24 28 38 48 53 55 56 60 67 68 67 61 51 52 59 56 54 54 52 56 59 51 49 54 59 64 62 59 62 65 70 81 89 93 96 98 100 102 102 101 100 100 100 102 101 94 87 83 82 86 90 90 93 94 93 93 94 92 92 91 90 89 87 84 81 78 75 68 57 48 42 37 30 30 40 56
14 14 15 14 15 20 24 25 26 29 31 38 53 61 57 57 59 60 61 62 58 55 54 50 44 45 53 52 47 49 48 42 43 53 65 69 65 63 67 73 82 90 94 97 99 100 101 100 101 102 101 100 101 101 94 79 69 65 67 73 77 79 83 85 87 92 93 91 91 92 92 92 91 90 88 83 78 72 63 54 48 44 37 33 42 59
16 15 17 17 17 22 28 31 33 36 38 44 55 59 54 53 54 53 53 56 52 47 45 40 31 32 43 47 41 38 39 42 47 60 72 74 73 79 86 90 96 97 96 99 100 99 100 100 101 102 101 100 99 95 84 68 58 56 56 58 60 60 63 64 65 68 70 71 72 73 73 74 73 76 78 79 77 73 67 60 54 50 44 40 44 59
20 19 21 21 19 24 31 34 37 40 41 46 51 51 48 47 46 47 50 50 43 34 28 26 26 30 35 37 38 43 51 60 67 76 86 89 90 95 97 98 100 99 99 101 99 99 100 100 99 98 98 97 91 80 68 55 47 45 44 45 46 46 47 48 48 49 50 52 54 55 56 57 56 57 58 62 67 70 67 64 60 56 51 48 49 60
24 23 25 25 23 27 33 35 36 36 39 46 48 43 39 38 36 37 40 39 31 24 24 27 31 37 42 49 60 71 78 84 90 94 99 102 100 97 97 99 101 101 101 101 101 101 102 101 98 94 90 81 67 53 44 39 36 36 35 35 34 33 33 33 33 35 37 39 42 44 46 48 48 49 48 48 53 58 62 64 63 60 57 54 55 63
27 27 28 28 26 28 32 33 33 34 37 40 39 33 29 27 25 24 27 30 28 28 34 41 49 59 71 82 91 95 92 91 95 100 103 104 103 102 100 99 100 101 101 101 101 97 92 87 79 68 58 47 39 34 32 31 29 27 24 22 20 19 19 19 20 20 22 25 29 32 37 40 42 44 44 43 44 47 53 59 61 61 60 59 61 68
30 29 29 29 27 27 30 31 31 33 34 31 26 22 19 18 19 20 25 33 40 46 55 67 78 90 97 100 103 102 96 91 91 97 103 103 100 102 103 102 103 102 98 91 81 68 59 52 44 38 33 30 29 27 24 21 18 16 16 17 19 19 19 17 17 16 15 16 18 20 25 28 32 38 41 41 41 41 43 49 53 57 59 61 65 72
29 28 28 28 28 28 29 28 25 23 22 19 17 18 20 25 31 35 39 49 61 70 80 90 96 101 103 101 101 100 95 85 76 79 92 96 92 93 96 94 91 82 68 55 44 37 34 33 31 29 26 22 19 17 15 16 18 21 25 27 25 23 20 17 15 14 13 14 14 15 16 18 22 33 41 41 40 40 40 41 45 49 53 58 65 73
27 28 29 28 27 25 21 18 17 18 23 27 30 35 43 49 54 56 58 66 78 88 94 97 95 96 96 94 90 85 75 63 49 46 56 63 60 58 58 55 51 45 36 30 28 28 27 25 23 19 16 15 16 18 23 28 32 33 32 30 25 21 18 15 14 14 14 14 14 14 14 15 19 30 43 49 48 45 41 38 40 43 46 51 61 74
27 27 25 22 19 17 17 19 26 35 43 48 52 59 66 67 70 74 75 78 88 95 98 96 92 89 84 75 64 54 43 34 25 19 22 24 23 23 23 22 23 24 23 23 21 18 17 16 16 17 19 23 27 30 34 37 38 36 30 25 22 20 18 18 18 18 19 19 19 18 18 18 21 27 39 55 69 69 56 44 39 39 42 46 54 70
21 18 17 17 19 25 33 41 52 61 64 66 70 75 77 77 82 87 84 83 89 94 93 88 80 70 58 45 34 27 21 17 13 11 11 11 11 12 13 13 14 14 14 14 14 15 19 22 25 30 34 37 38 37 35 33 33 33 28 24 24 24 23 25 26 26 27 28 27 26 25 25 26 27 33 51 80 96 88 71 54 42 40 44 49 62
15 19 26 34 42 51 59 65 72 80 81 80 81 83 83 84 90 92 86 80 81 80 73 62 50 38 29 21 17 14 14 16 14 11 11 10 9 10 10 10 11 11 12 14 18 23 27 30 33 36 38 39 39 35 33 33 32 31 28 29 36 38 34 33 34 36 38 42 41 38 35 33 32 32 33 43 72 99 103 97 85 65 49 46 49 58
31 43 51 57 63 69 72 75 80 85 87 87 89 92 92 89 88 87 82 73 63 52 41 31 23 18 15 14 14 13 13 15 15 12 11 10 9 8 8 8 9 10 13 15 17 19 20 20 22 24 28 32 34 37 42 41 35 30 29 36 47 53 48 42 43 45 47 52 54 50 46 42 39 39 38 40 64 92 101 100 102 93 75 60 54 60
52 59 61 63 68 71 73 77 81 83 88 92 95 98 96 88 79 71 61 48 36 26 19 15 13 12 12 13 14 14 12 12 11 10 8 7 6 5 4 5 5 6 8 9 10 11 11 12 14 16 20 24 31 44 53 46 34 32 35 40 50 57 59 58 59 59 59 61 64 62 57 51 46 46 45 43 59 90 102 98 100 103 97 85 72 70
60 62 64 66 69 70 74 82 86 86 91 94 91 87 82 72 58 44 32 23 17 14 12 10 10 12 14 15 13 11 10 9 7 6 5 4 4 4 3 4 4 5 6 7 9 11 12 15 17 18 19 25 37 55 58 44 35 37 44 53 63 71 79 84 85 84 81 77 76 76 72 64 53 50 51 48 58 87 104 100 98 101 102 100 93 87
64 65 68 71 72 74 81 88 89 89 91 89 78 66 54 41 29 20 15 12 11 10 10 10 11 13 14 14 11 9 8 6 4 4 4 4 4 3 3 4 4 6 8 9 11 13 15 18 20 20 24 34 49 59 52 39 39 50 61 74 83 86 92 100 102 102 100 96 92 89 87 82 66 54 54 53 60 87 105 101 98 100 100 101 102 98
68 67 71 75 78 82 87 88 85 82 77 65 49 36 26 19 15 14 12 10 10 11 13 13 12 11 11 10 8 6 5 4 4 4 4 3 3 3 3 5 6 8 11 11 13 16 18 20 22 27 35 46 53 51 42 39 51 65 74 81 83 83 89 97 102 104 104 103 103 98 97 97 83 63 56 55 63 86 104 101 98 100 99 100 102 100
68 71 75 78 80 83 84 81 74 64 49 32 21 17 14 13 13 11 10 10 10 11 11 11 10 10 9 7 5 4 4 4 4 4 3 3 3 3 4 6 9 11 12 14 15 17 19 21 28 37 44 47 44 39 38 47 61 69 71 73 73 75 81 89 96 101 101 102 103 101 101 103 94 75 63 59 67 87 102 101 100 99 99 101 101 100
73 76 77 78 79 78 73 65 53 37 23 14 11 11 10 9 9 8 8 8 8 7 7 8 9 8 6 4 4 4 4 4 4 3 4 3 3 4 6 7 10 12 13 14 16 17 19 27 38 45 44 38 34 34 41 53 62 63 62 62 62 66 74 85 95 98 96 99 102 101 101 102 97 89 77 65 70 90 101 100 101 100 98 100 101 99
76 76 75 74 72 64 51 39 29 19 12 9 8 8 7 7 7 6 6 6 5 6 8 8 7 6 4 4 5 5 4 5 4 4 4 4 4 5 6 8 10 11 12 14 15 16 22 33 44 44 37 32 33 37 46 54 56 55 54 53 56 61 71 87 98 91 83 91 101 101 102 101 99 100 92 74 73 91 100 99 101 101 98 99 101 100
73 71 68 62 54 41 28 20 18 16 15 12 9 8 8 7 6 6 5 6 6 7 8 7 5 4 4 5 5 5 5 5 4 4 4 4 4 6 6 8 10 11 11 12 13 16 24 39 47 41 32 34 40 43 47 50 48 49 51 50 54 58 64 84 102 93 78 85 96 98 101 101 99 103 99 81 77 92 101 98 100 101 98 98 101 100
67 61 54 45 35 26 19 17 16 17 16 13 10 8 7 6 6 6 5 6 8 8 8 6 4 4 5 6 5 5 6 5 5 5 5 5 5 6 6 8 10 11 12 12 12 14 22 37 47 40 30 35 43 43 43 45 48 53 55 52 52 53 56 77 102 101 89 89 93 96 101 101 98 102 101 87 82 93 101 99 99 101 99 99 101 101
54 45 36 29 23 19 17 15 13 12 10 8 7 6 6 6 6 6 7 8 9 8 5 4 5 6 6 6 6 6 6 6 6 6 6 6 6 6 6 8 9 12 14 13 12 12 16 28 43 42 32 30 35 37 40 45 53 64 65 56 51 49 53 74 99 105 100 97 95 96 100 99 98 102 101 90 87 95 100 99 100 100 100 99 101 101
Wind_Speed
18 19 20 21 22 23 24 24 25 26 27 28 28 29 30 30 30 32 33 33 34 34 33 36 36 34 36 38 39 39 40 42 44 44 46 46 47 48 48 48 47 46 46 47 47 47 46 44 44 44 44 44 45 47 48 49 50 51 52 52 53 53 53 54 55 55 56 57 59 60 62 63 65 66 68 71 74 76 77 77 77 74 71 71 73 75
19 20 21 22 23 24 25 26 27 28 28 29 30 30 31 32 32 32 34 34 35 35 34 36 36 35 37 39 40 41 41 43 45 45 46 47 48 48 48 47 47 46 46 46 46 46 45 44 44 45 45 45 46 47 48 49 51 52 52 53 53 53 54 54 55 56 57 58 60 61 62 64 65 67 68 71 73 75 76 76 75 73 71 71 72 73
21 22 23 24 25 26 27 28 28 29 30 30 31 31 32 33 33 33 34 35 36 36 35 36 37 36 37 40 41 42 43 45 46 46 47 48 48 48 48 47 46 45 45 46 46 45 44 44 45 45 46 46 47 48 49 50 52 53 53 53 54 54 54 55 56 56 57 59 60 61 63 64 66 67 69 70 72 74 75 75 74 71 70 70 71 72
22 24 25 26 26 27 28 29 30 30 31 31 32 32 33 34 35 35 35 35 36 37 37 37 38 38 38 40 42 43 44 46 46 46 48 49 49 48 47 47 46 46 46 46 46 45 45 45 46 47 47 47 48 49 50 52 53 54 53 53 54 54 55 56 56 57 58 59 61 62 63 65 66 67 69 70 72 73 74 74 72 70 69 69 69 70
24 25 26 27 28 29 29 30 31 31 32 32 33 34 34 35 36 37 37 37 36 37 38 39 40 39 38 40 44 46 46 47 47 47 49 50 49 48 47 47 46 46 46 46 46 46 46 46 47 48 48 48 49 50 51 53 54 54 53 53 54 55 55 56 57 57 59 60 61 62 64 65 66 67 69 70 71 72 73 73 71 69 67 68 68 68
25 26 27 28 29 30 30 31 32 33 33 34 35 36 37 37 38 38 39 39 38 38 39 41 42 41 40 42 46 48 48 48 48 48 49 50 49 48 47 47 47 47 47 47 47 47 47 47 48 49 49 49 49 50 52 53 54 54 53 54 55 55 56 56 57 58 59 60 61 63 64 65 66 67 68 70 71 71 72 71 70 68 67 66 67 66
26 27 28 29 30 31 32 33 34 35 35 36 36 37 38 39 39 40 40 40 41 41 41 43 45 45 42 42 46 50 49 48 49 48 49 50 49 48 47 47 48 48 48 48 47 47 48 48 49 50 50 50 50 51 52 53 54 54 54 54 55 56 56 57 58 58 60 61 62 63 64 66 66 67 68 69 70 70 70 70 69 67 66 65 65 65
28 28 29 30 31 32 33 34 35 36 37 37 37 38 39 40 41 41 41 41 42 42 43 44 46 48 46 44 47 51 49 49 49 48 49 49 49 48 48 48 48 49 49 48 48 49 49 50 51 51 50 50 51 52 53 54 54 54 54 55 56 57 57 57 58 59 60 61 62 63 64 66 66 67 67 68 69 69 69 69 67 66 65 64 63 63
28 29 30 31 32 34 35 36 37 37 38 38 38 39 40 41 42 42 42 43 43 44 44 45 46 49 49 47 49 51 51 50 49 49 49 48 48 48 48 48 49 50 49 48 49 50 51 51 52 52 51 51 51 52 53 54 55 55 55 55 56 57 57 58 59 59 60 61 62 64 65 66 67 67 67 67 68 68 68 67 66 65 63 63 62 61
30 30 31 33 34 35 36 36 37 38 39 39 39 40 41 42 42 43 43 44 45 45 45 47 47 50 51 47 49 52 52 51 50 49 49 47 47 48 48 49 50 50 50 49 50 51 52 53 53 53 52 52 52 53 54 54 55 56 55 56 56 57 57 58 59 60 61 62 63 64 65 66 67 67 67 67 67 67 66 66 65 64 62 61 61 60
31 32 33 34 35 36 36 37 38 39 39 40 41 41 42 43 43 44 44 44 46 46 47 49 49 52 52 48 49 52 52 52 51 50 49 47 46 47 49 50 51 51 51 50 51 52 53 54 54 54 54 53 54 54 54 55 56 56 56 56 56 56 57 58 60 60 61 62 63 64 65 66 66 66 66 66 66 66 65 65 64 62 61 60 59 58
32 33 34 34 35 36 37 37 38 39 40 41 42 43 43 44 44 45 45 46 47 48 50 52 52 53 52 47 46 50 51 52 51 50 50 48 47 47 49 51 52 52 52 51 51 53 54 55 55 56 55 55 55 55 56 56 56 57 57 57 57 57 57 58 60 61 61 62 63 64 65 66 66 66 66 65 65 64 64 63 63 61 60 59 58 57
32 33 34 34 35 36 37 38 39 40 40 42 42 44 45 46 46 47 47 48 49 50 52 54 55 54 51 46 46 49 51 51 51 51 51 49 48 48 49 51 52 53 53 52 52 53 55 56 57 57 57 56 56 56 57 57 57 58 58 59 58 58 57 58 59 61 62 62 63 64 65 66 66 65 65 64 64 63 62 62 61 60 59 58 57 56
32 32 33 34 35 35 36 38 39 40 41 42 43 44 46 47 49 49 50 51 51 52 54 55 56 55 50 46 47 50 52 51 51 52 52 50 49 49 50 52 53 53 53 53 53 54 56 57 58 59 59 59 58 58 58 58 58 59 60 60 60 59 59 58 59 61 62 63 63 63 64 65 65 65 64 63 63 62 61 61 60 59 58 57 56 55
32 32 32 33 34 35 37 38 40 41 42 43 44 46 47 47 49 51 51 53 53 53 53 54 55 54 49 45 46 50 52 51 51 53 52 50 50 51 52 53 54 54 54 55 55 56 57 59 59 60 61 61 60 60 60 60 60 61 61 62 62 61 61 60 59 60 62 63 62 63 63 64 64 64 63 63 62 61 60 60 59 58 57 56 55 54
33 32 33 34 35 36 38 39 40 42 43 45 46 47 48 48 50 51 52 53 54 54 53 53 54 53 47 42 43 49 51 51 52 53 52 52 52 53 54 55 56 56 56 57 57 58 59 60 61 62 62 62 62 62 61 61 61 62 63 63 63 63 62 61 60 60 61 62 62 62 62 63 63 63 63 62 61 60 59 59 58 57 55 55 53 52
34 34 34 35 36 38 39 41 42 43 45 47 48 48 48 49 50 52 52 53 54 55 55 53 54 54 47 38 37 45 50 52 54 55 55 54 54 55 56 57 57 58 58 58 59 59 60 61 62 64 64 64 63 63 62 62 63 63 64 64 64 63 63 62 60 60 61 61 61 61 61 61 62 62 62 61 60 59 58 57 57 56 54 53 52 51
35 36 36 37 38 39 41 43 44 44 46 47 48 49 49 49 50 51 52 53 55 56 57 55 54 55 47 37 33 39 46 52 57 58 57 54 54 56 57 57 58 58 59 60 60 61 62 63 64 66 66 66 65 64 64 64 64 64 65 65 64 64 63 62 61 60 60 60 59 59 60 60 60 60 60 60 59 58 57 57 56 55 53 52 51 49
37 38 37 38 40 41 42 44 45 45 46 47 48 48 48 48 49 50 52 54 55 57 58 57 56 54 47 38 34 38 45 53 59 60 58 54 54 56 57 58 58 59 60 61 62 63 63 64 66 67 68 67 67 66 66 66 66 66 66 65 64 64 63 62 61 60 60 60 59 58 58 58 58 59 59 59 58 57 56 56 55 54 53 51 50 48
39 41 40 40 41 42 44 45 45 45 46 47 48 47 46 47 48 49 51 53 54 56 59 59 58 56 47 40 38 41 46 53 59 60 58 55 55 57 58 59 59 60 61 63 64 65 65 66 68 69 68 68 68 68 68 68 68 67 66 65 64 63 62 61 60 59 59 59 58 57 57 57 57 57 57 57 57 56 55 54 54 53 52 50 49 48
41 42 43 42 42 43 44 45 45 45 46 47 47 47 46 47 48 50 52 53 53 55 57 59 62 58 49 42 40 43 49 54 58 59 57 55 56 58 60 61 61 62 63 65 66 67 67 68 69 70 70 70 69 69 69 69 68 67 66 65 64 63 62 61 59 59 58 58 57 56 56 56 56 56 56 56 56 56 54 53 53 52 51 50 48 47
43 44 45 43 43 44 45 45 45 45 47 48 48 47 46 47 49 50 53 53 53 56 56 58 63 60 49 42 42 47 52 55 57 58 57 56 57 58 61 62 62 63 64 66 67 68 69 71 71 71 72 72 70 70 70 69 68 67 66 65 64 63 61 60 59 58 57 57 56 56 56 55 55 55 55 55 55 55 54 52 51 50 50 49 47 46
44 46 46 44 44 45 45 45 45 46 48 49 49 48 47 48 48 50 53 53 53 57 56 57 63 60 49 43 46 51 54 56 58 58 56 56 57 59 62 62 63 64 65 66 67 68 70 72 73 73 73 73 72 71 70 69 68 67 66 65 64 62 61 60 58 58 57 56 55 55 55 55 55 55 55 54 54 54 53 52 50 49 48 48 47 46
45 46 47 46 46 46 45 44 45 47 49 50 49 48 47 48 48 49 51 52 54 57 55 57 63 59 49 46 51 54 56 57 58 57 57 57 58 60 62 63 63 64 65 66 67 68 71 72 73 74 74 73 72 72 71 69 68 67 65 64 63 62 61 60 59 58 57 55 55 54 55 55 56 55 55 54 54 53 53 52 50 48 47 47 46 45
46 47 48 49 50 49 47 47 47 48 50 50 49 48 47 47 48 49 50 52 56 56 53 57 62 58 49 51 54 54 57 58 57 57 57 58 58 60 62 63 64 65 66 66 68 69 71 72 73 74 74 73 73 72 71 69 67 66 65 63 62 61 61 60 60 58 57 56 56 55 55 56 56 56 56 55 54 53 53 52 50 48 46 45 45 44
48 47 48 50 51 51 51 51 51 52 52 50 49 48 47 47 48 49 50 53 55 56 55 57 60 58 53 53 54 55 57 58 57 57 56 57 58 61 64 65 65 66 67 68 70 71 72 72 73 74 74 74 74 72 70 69 67 66 65 63 61 61 60 59 59 58 57 57 57 57 57 56 56 56 56 56 55 53 53 52 50 47 45 44 44 43
48 48 48 49 50 50 50 50 51 52 52 50 48 47 47 47 48 49 51 53 54 57 58 54 56 60 58 55 56 58 58 59 59 59 59 60 61 64 66 67 67 68 69 71 72 72 73 72 73 74 74 74 74 72 71 69 68 67 65 63 62 61 60 59 58 57 57 58 59 59 58 57 57 56 56 57 56 54 53 52 50 47 45 44 42 42
50 49 48 49 49 49 48 48 48 49 49 47 46 45 46 47 49 49 50 50 52 57 59 54 55 60 59 57 59 60 59 61 62 62 63 64 66 68 69 69 70 70 71 72 72 73 73 73 74 74 74 74 74 73 72 71 69 68 66 64 63 62 61 60 59 58 58 59 60 60 60 60 59 57 57 57 57 56 53 52 51 48 45 43 42 41
50 50 49 49 49 46 45 45 45 46 46 44 43 44 46 47 48 49 49 49 52 57 59 56 56 58 58 58 60 60 61 64 65 66 66 67 69 70 71 71 71 71 72 72 72 73 74 75 76 76 75 76 75 74 73 71 70 69 67 66 65 64 63 63 62 61 61 62 62 62 62 62 61 60 58 57 58 57 54 53 51 49 46 43 41 40
49 49 48 49 47 43 41 42 43 43 43 41 41 43 46 46 47 49 48 49 52 55 56 56 57 57 58 60 61 62 64 66 67 68 68 68 70 72 72 72 72 72 73 73 73 74 76 77 78 78 78 78 77 76 74 72 71 70 69 68 68 67 67 66 65 64 65 65 65 65 65 64 63 62 61 59 57 57 55 53 52 50 47 43 41 40
47 47 46 47 46 41 39 41 41 41 42 41 41 44 46 47 47 48 48 48 51 54 55 57 59 58 58 61 63 64 66 68 69 69 69 69 71 72 73 73 73 74 74 75 76 77 78 79 79 80 80 80 81 80 78 75 74 73 72 72 72 72 72 71 70 69 69 69 69 68 68 67 65 64 63 61 58 57 56 54 53 51 48 44 42 40
44 45 45 46 45 41 40 41 41 41 42 42 43 44 46 47 47 48 48 48 51 55 57 58 60 59 60 62 65 66 67 69 70 70 70 71 71 73 74 75 75 76 77 78 79 80 81 81 81 82 82 83 83 82 81 80 79 78 77 77 78 78 78 77 77 76 74 74 73 72 71 70 68 66 65 63 60 58 56 55 54 52 50 45 42 40
42 43 44 45 45 42 41 43 42 41 41 42 43 45 46 47 49 49 49 50 53 56 58 59 60 61 63 65 66 67 67 69 70 71 72 73 74 74 75 76 77 78 80 81 82 83 83 84 84 84 85 86 86 85 84 84 84 84 85 85 86 86 86 85 84 83 81 80 79 77 75 73 70 68 67 65 63 60 57 56 55 54 51 47 43 41
42 43 44 45 46 43 42 43 42 40 40 43 45 48 49 50 52 52 52 52 54 56 58 60 61 63 64 66 67 68 69 70 71 72 72 74 76 76 77 77 78 80 81 82 83 84 86 87 88 88 89 89 90 90 91 92 93 93 92 91 89 87 86 84 83 82 82 81 81 81 80 77 74 72 70 67 65 62 59 57 56 55 53 50 45 41
42 43 44 44 45 44 42 42 42 40 42 46 49 50 51 52 53 54 53 53 54 56 58 60 62 64 65 67 69 70 70 70 70 70 71 73 76 78 79 79 80 81 83 84 86 88 89 91 92 92 93 95 96 97 97 96 94 91 87 85 82 81 80 79 78 77 77 77 77 78 79 79 78 75 72 69 67 64 61 58 56 56 55 52 47 43
41 42 42 43 43 44 43 43 44 43 45 48 51 52 52 52 53 55 55 53 54 57 60 62 64 66 67 68 69 70 71 71 71 71 72 74 76 78 80 82 83 85 87 89 91 93 95 96 97 98 99 98 97 94 91 87 84 82 80 80 80 80 79 79 78 77 76 75 75 74 75 77 76 74 72 70 68 65 63 60 57 56 56 54 49 44
40 40 41 43 43 45 45 46 46 45 47 50 52 53 54 54 56 58 59 57 58 62 64 66 67 68 68 69 70 72 74 75 74 73 74 77 79 80 83 85 88 90 93 95 97 98 98 98 97 95 92 89 86 83 82 81 80 80 80 80 80 80 79 79 78 76 76 74 74 74 73 73 72 70 68 68 67 65 64 62 59 57 56 54 51 46
40 40 42 43 44 45 47 47 48 48 49 52 54 55 56 57 58 61 62 62 62 64 66 67 69 69 71 73 75 76 78 80 80 78 79 81 83 85 88 90 92 95 96 97 96 94 92 89 86 83 82 81 80 80 80 80 80 80 80 79 78 78 78 77 76 74 73 71 70 71 71 70 68 67 66 65 65 64 63 61 59 57 56 54 52 48
40 41 41 43 44 45 47 49 50 50 52 54 56 56 57 59 60 62 64 64 63 65 67 69 71 73 75 76 78 80 82 85 86 85 85 87 89 90 91 90 89 88 87 86 86 84 82 80 79 79 79 79 81 81 81 80 78 77 77 76 75 75 74 73 72 71 70 68 67 66 67 67 66 65 64 63 62 61 61 61 59 57 55 54 52 49
40 41 42 43 44 46 48 50 50 51 53 54 56 57 59 61 62 64 66 66 65 66 68 71 74 76 77 79 80 82 84 87 90 91 91 90 88 85 83 82 80 80 80 80 81 81 81 79 79 78 78 79 80 80 80 79 76 72 70 69 69 70 69 67 67 67 67 66 66 65 64 63 63 62 62 62 60 58 58 59 59 57 54 53 52 49
42 43 44 45 47 48 50 52 52 53 54 55 57 59 61 62 63 65 67 68 69 70 71 73 76 78 80 81 82 84 85 88 91 91 87 83 79 77 77 78 80 81 82 82 83 83 82 81 80 79 78 77 78 78 77 76 73 70 66 63 63 65 65 64 64 64 64 65 65 65 64 63 61 59 57 58 58 56 54 55 58 57 54 52 51 49
45 47 48 49 50 52 53 54 55 56 56 57 58 61 62 63 64 66 67 69 72 73 74 76 77 79 81 82 83 86 86 85 82 79 75 74 75 77 80 82 84 85 85 84 84 83 83 82 80 78 77 76 76 76 75 73 70 67 63 59 59 62 64 65 65 65 64 64 65 65 64 63 62 60 56 54 55 55 51 50 53 57 55 51 49 47
48 49 51 52 53 54 55 56 57 58 58 58 60 62 63 65 67 69 70 71 73 75 77 78 79 80 82 84 85 83 79 74 71 70 71 74 77 80 82 84 85 86 85 84 83 82 81 80 79 78 76 75 74 74 73 70 66 62 60 60 61 63 65 66 67 67 66 65 65 64 63 62 61 61 58 52 51 52 51 47 48 53 55 52 48 46
50 51 52 53 54 55 55 56 58 59 59 59 62 64 65 66 68 70 72 73 74 76 78 79 80 81 82 82 78 73 70 69 70 72 75 77 79 81 83 83 84 84 83 83 82 81 81 80 79 77 75 73 73 72 69 65 62 59 59 61 64 65 66 68 69 68 67 67 66 64 62 61 60 61 60 53 48 48 49 47 44 48 53 53 49 45
51 52 53 54 55 55 56 56 58 59 59 59 61 64 65 66 68 71 73 75 75 76 78 79 80 79 75 72 69 67 68 70 72 74 76 77 79 81 82 82 82 82 82 82 81 80 80 78 77 76 74 72 71 70 65 61 59 59 60 63 66 67 68 69 69 68 67 67 66 64 62 60 58 59 60 55 47 45 46 46 43 43 49 52 50 46
52 53 54 54 55 55 55 56 58 59 59 59 61 64 65 66 68 71 73 75 76 77 79 80 79 74 68 66 67 68 68 70 72 73 74 76 77 78 80 80 80 80 80 80 79 78 78 76 75 74 72 70 68 65 60 57 58 61 62 64 66 68 70 71 70 67 65 65 65 65 62 58 56 57 59 56 46 42 42 44 42 41 45 50 50 47
52 53 53 54 54 54 54 56 57 59 60 61 63 65 67 68 70 73 75 77 79 80 80 78 73 67 64 64 67 68 68 70 72 73 73 74 76 77 78 79 79 78 78 78 78 77 76 74 73 72 70 68 64 60 57 56 59 63 64 65 68 70 71 72 71 67 65 64 64 64 61 57 55 55 57 56 46 40 39 40 41 39 42 47 49 47
51 52 53 54 54 55 56 57 59 60 61 64 66 68 71 73 74 76 78 80 81 80 77 71 65 62 61 63 66 68 69 69 71 72 73 74 76 77 78 78 78 78 77 77 77 76 75 74 73 71 68 65 61 58 56 57 60 64 66 67 69 70 72 74 71 68 66 65 64 61 58 55 55 54 55 55 46 38 37 38 39 39 39 44 47 46
52 53 54 55 55 56 57 60 61 62 62 64 68 71 73 75 76 77 78 79 78 75 70 63 58 57 60 63 65 68 68 68 70 71 72 73 75 77 78 78 78 77 77 77 77 76 75 74 73 70 66 63 60 58 58 59 62 64 66 67 68 70 73 75 72 68 66 64 61 58 55 54 54 53 54 53 44 36 35 36 38 38 38 41 44 45
53 53 55 56 57 58 60 63 66 67 66 67 69 72 74 75 76 76 76 75 71 66 61 56 53 54 57 60 63 66 67 68 68 69 71 72 74 77 78 78 78 78 78 78 77 76 74 73 72 69 65 62 60 60 61 62 64 66 67 67 67 70 74 75 74 69 65 62 59 56 53 53 52 51 52 50 41 34 33 34 36 37 37 38 41 42
54 55 56 58 60 61 62 64 67 70 71 70 71 73 74 75 76 75 73 69 64 58 55 54 55 56 56 57 60 63 66 67 67 68 70 71 72 74 76 77 79 78 78 78 78 77 75 73 70 68 65 63 62 63 64 65 66 67 67 66 67 70 73 75 75 69 64 61 58 54 52 52 51 50 49 45 36 32 32 33 34 36 36 36 39 40
Wind_Direction
311 313 315 316 315 315 316 317 315 315 317 317 317 317 315 315 314 313 312 311 309 309 309 308 311 313 311 312 314 315 318 318 319 319 319 319 319 318 318 317 317 316 315 315 315 315 317 317 317 317 316 316 317 318 319 320 320 320 320 321 322 321 321 322 323 324 324 323 323 323 323 324 324 325 327 328 329 331 332 333 333 333 333 333 333 334
310 313 315 315 315 315 315 316 315 316 317 317 316 316 315 314 313 312 310 309 308 308 309 308 309 311 311 312 315 317 319 318 319 319 319 319 319 318 318 317 317 316 315 315 315 317 318 319 319 318 318 318 319 319 320 321 321 320 320 321 322 322 322 323 324 325 324 324 324 324 323 324 325 326 327 328 330 331 332 334 334 334 334 334 334 335
310 312 314 315 315 315 315 315 316 316 316 315 315 315 314 313 312 311 310 309 307 306 307 306 307 311 313 314 316 318 319 319 319 320 319 320 319 318 318 317 317 316 315 315 316 318 320 320 320 320 320 320 320 320 321 321 321 321 320 321 322 322 323 324 325 326 325 324 324 324 324 324 325 326 327 329 330 331 333 334 335 335 335 335 335 336
309 311 313 313 314 314 314 314 314 314 314 313 314 314 314 313 312 311 309 308 307 306 306 306 307 313 316 317 317 318 319 319 320 320 319 319 319 318 318 317 316 315 315 316 317 319 320 320 320 321 320 320 320 320 321 321 321 321 320 321 322 323 323 324 326 326 325 324 324 324 324 325 326 326 328 329 330 332 333 335 336 336 336 336 336 337
307 309 311 311 312 312 312 312 312 312 312 312 313 313 313 313 312 312 310 309 308 307 308 308 308 313 318 318 317 318 320 319 320 320 319 319 319 318 317 316 316 316 316 317 318 319 320 320 321 321 321 321 320 320 321 322 321 321 320 321 323 324 324 325 326 326 325 325 324 325 325 325 326 327 328 329 330 332 334 335 337 337 337 337 337 337
306 308 309 309 310 311 311 311 311 311 311 312 313 313 313 313 313 312 311 310 309 309 310 310 310 313 318 321 318 318 320 320 320 320 319 319 319 318 317 316 317 317 317 318 318 319 319 320 321 321 321 320 320 320 321 322 321 321 321 322 324 325 325 325 326 326 325 325 324 325 325 326 326 327 328 329 330 332 335 336 338 338 338 337 338 338
305 306 307 308 309 309 310 310 310 311 310 311 312 312 312 313 313 313 312 311 310 311 312 313 312 312 317 321 319 318 320 319 320 320 319 319 318 317 317 317 318 318 318 318 317 317 318 319 320 321 321 320 320 320 321 322 322 322 322 323 325 325 326 326 326 326 325 325 325 325 326 326 326 327 328 329 330 332 335 337 338 338 338 338 338 339
303 304 305 306 307 308 309 309 309 309 309 309 310 311 312 313 313 313 312 312 311 312 313 313 313 313 316 320 318 317 319 319 320 320 319 318 317 317 318 318 318 318 317 317 316 316 317 319 321 321 321 320 319 320 321 322 323 323 323 324 325 326 326 326 326 325 325 325 325 325 326 326 326 326 327 328 330 333 335 337 339 339 338 338 339 339
302 303 304 306 307 307 308 308 308 308 308 309 310 310 311 312 313 312 312 312 311 312 313 314 314 313 316 320 318 317 319 319 320 319 318 318 317 317 318 318 317 317 316 316 315 315 317 319 321 322 321 320 319 320 321 323 323 323 323 324 325 325 326 326 326 325 325 324 325 325 326 326 326 326 327 328 330 333 336 337 339 339 338 338 339 340
302 303 304 306 307 307 308 307 307 307 308 309 309 310 311 311 312 312 312 312 311 312 313 313 313 313 316 320 319 317 318 319 319 319 317 317 316 316 317 317 317 316 315 315 315 315 316 319 322 323 322 320 320 320 321 322 323 323 323 324 324 325 325 326 325 325 324 324 325 325 325 325 325 326 326 328 330 333 336 338 339 339 339 338 339 340
302 303 305 306 306 307 307 306 307 307 308 309 309 310 310 311 311 311 311 312 311 312 313 313 314 315 318 322 320 318 318 318 318 318 316 316 316 316 316 317 316 315 314 314 315 315 316 319 322 324 323 321 320 320 321 321 322 322 323 323 323 324 324 325 325 325 324 324 324 324 324 324 325 325 326 328 330 333 336 337 339 339 339 338 339 340
302 304 305 306 306 306 306 307 307 308 308 309 309 310 310 310 310 310 311 311 310 312 312 313 314 316 320 324 321 317 317 317 317 316 315 315 316 316 316 316 315 314 314 315 315 315 317 319 322 324 323 322 320 320 320 320 321 322 322 323 323 323 323 324 324 324 324 323 323 323 323 323 324 325 326 327 329 332 335 337 338 339 339 338 339 340
302 304 305 306 306 306 307 307 308 308 309 309 310 310 310 310 310 310 310 311 311 313 313 313 315 316 320 324 320 317 316 316 316 315 314 314 315 316 316 314 314 314 314 315 315 316 317 320 322 323 323 322 320 320 319 320 320 321 322 322 323 322 323 323 323 323 323 322 322 322 322 322 323 324 326 327 329 332 335 337 338 338 338 338 338 339
302 303 305 305 305 307 307 308 308 309 309 310 310 310 310 311 310 310 310 311 311 312 312 313 315 316 321 324 320 316 314 314 314 313 313 314 315 316 314 313 313 314 315 316 316 316 318 319 321 322 323 322 321 320 320 320 320 321 322 322 323 322 322 322 323 322 322 321 320 320 320 321 322 324 325 326 328 331 334 336 338 338 338 337 338 339
303 305 306 306 307 308 308 308 309 309 309 310 310 309 310 310 309 309 310 311 311 311 312 313 314 315 321 325 319 314 312 313 313 312 312 313 314 314 313 312 313 315 317 317 317 317 317 319 320 321 322 322 321 321 320 320 320 321 322 322 323 322 322 321 321 321 320 319 318 318 319 320 321 323 325 326 327 330 333 335 337 338 337 337 337 338
304 306 307 308 308 309 309 309 309 309 309 309 308 308 308 309 308 309 310 311 310 310 311 312 313 314 321 327 320 312 311 311 311 310 311 313 314 313 313 314 315 316 317 317 317 316 317 318 319 321 322 322 322 321 321 321 321 321 322 322 322 322 321 320 320 319 318 317 316 316 317 319 320 323 324 325 326 329 332 334 336 337 337 336 336 337
305 306 308 309 309 309 309 308 308 308 308 308 308 308 308 308 308 309 310 310 309 309 310 312 312 313 321 328 322 312 310 309 309 309 311 313 314 313 314 315 315 316 317 316 316 316 316 318 319 321 322 322 322 321 321 321 321 321 321 321 321 321 320 319 318 317 316 315 314 315 316 318 320 322 324 325 326 328 331 333 334 336 336 335 335 336
304 305 307 308 309 309 308 307 307 307 307 307 307 307 307 308 309 309 310 310 309 309 309 311 312 314 321 329 322 310 307 307 307 307 311 314 313 313 314 314 315 315 315 314 314 315 316 318 319 320 321 321 321 321 321 321 321 321 321 320 320 319 319 318 316 315 314 314 313 313 315 317 319 321 323 324 325 327 330 332 333 334 335 334 334 335
303 304 306 307 307 307 306 306 306 307 307 307 306 307 308 309 309 309 309 309 309 307 307 310 312 314 321 327 319 307 304 302 302 305 312 314 313 312 313 313 313 313 312 313 314 315 317 318 319 319 320 321 321 322 321 321 321 321 320 320 319 318 318 317 314 313 312 312 311 312 314 316 318 320 322 323 324 326 328 330 332 333 334 334 333 333
303 303 305 306 307 307 306 306 306 307 307 306 307 308 309 309 309 309 309 308 307 305 306 309 312 315 322 324 318 309 302 298 299 306 312 313 312 312 312 312 311 311 312 313 314 316 317 317 318 318 320 321 322 322 322 322 321 321 320 320 319 318 317 315 313 311 311 310 310 311 313 315 317 319 321 322 323 325 326 329 331 332 332 332 332 332
303 303 304 306 307 307 306 307 308 308 307 307 308 308 309 309 308 308 308 307 306 304 305 308 311 316 322 324 318 307 298 296 301 308 311 312 312 313 311 310 310 311 312 314 315 316 316 316 317 319 320 320 321 322 322 322 322 322 321 321 320 318 316 313 311 309 309 309 309 310 312 314 316 317 319 321 323 324 325 327 329 330 331 331 331 331
303 303 305 307 307 307 307 308 308 308 307 307 307 308 309 308 308 307 306 306 305 303 305 308 309 316 325 324 313 301 296 300 304 308 311 312 313 312 310 310 310 311 313 314 314 314 314 316 318 318 319 320 321 322 322 323 323 323 323 321 320 317 314 312 309 307 307 307 307 309 310 312 314 316 318 320 322 322 323 325 327 329 330 330 330 329
304 304 305 306 307 306 307 308 308 307 307 307 307 309 308 307 307 305 304 305 304 304 308 307 306 317 328 321 307 302 303 306 307 308 312 312 312 310 309 309 310 311 313 313 312 313 314 316 317 318 318 319 321 323 324 324 324 323 322 320 318 316 312 309 307 306 306 305 306 307 308 310 313 315 317 319 320 321 322 323 324 326 328 329 329 328
304 304 305 305 305 305 307 307 306 306 307 307 308 308 307 307 306 303 303 304 304 308 310 303 305 320 326 314 307 307 307 307 308 310 312 312 311 310 308 308 310 311 311 311 311 313 314 315 316 316 318 319 321 324 324 324 323 322 320 318 316 313 311 308 307 306 305 304 305 306 307 309 311 313 316 317 318 319 320 321 322 324 326 328 328 327
304 305 306 306 305 306 306 306 306 307 307 308 308 308 307 307 304 303 303 304 306 310 307 302 308 319 319 311 310 309 307 308 310 311 312 310 310 308 307 308 309 310 310 311 312 313 313 314 315 316 318 320 322 323 323 322 321 320 318 316 314 311 309 308 307 306 305 304 304 305 306 308 310 312 314 316 317 317 318 319 320 322 324 325 326 326
304 306 306 307 307 308 308 308 308 309 309 309 309 308 308 306 303 303 304 305 308 308 305 306 312 314 312 312 310 308 308 310 310 310 309 308 308 307 307 308 309 310 311 312 313 313 313 313 315 317 319 320 322 322 321 320 319 318 317 315 312 310 308 307 306 306 305 305 305 306 306 307 309 310 312 314 315 316 316 317 318 320 321 323 324 324
305 306 307 307 307 308 309 310 310 310 310 310 310 310 308 305 304 305 306 308 309 306 307 312 312 309 312 313 310 310 311 311 311 310 310 309 309 308 309 310 311 312 313 313 312 312 312 314 316 317 319 320 321 321 320 318 317 316 315 313 311 310 308 307 306 305 305 304 305 305 305 306 307 309 310 311 313 314 315 315 317 318 319 320 321 322
305 306 307 306 307 308 310 311 310 310 311 312 313 311 306 305 306 307 308 309 309 306 309 313 310 309 314 313 311 313 313 311 311 311 311 311 311 311 312 313 313 313 312 312 311 312 313 315 316 317 318 319 320 318 317 316 315 313 312 311 310 308 307 306 305 305 303 303 303 304 304 305 306 307 308 309 311 312 313 313 314 316 316 317 319 319
306 307 307 307 308 310 311 311 310 311 312 314 313 309 306 307 308 308 308 309 309 308 310 312 310 311 313 313 313 314 312 311 311 311 312 313 312 313 313 312 312 312 312 312 312 313 314 315 315 316 317 317 317 316 314 313 312 311 310 309 308 306 305 305 304 303 302 302 302 303 303 304 305 306 307 308 309 310 311 312 312 313 314 315 316 316
306 308 308 308 309 313 313 312 311 312 313 314 312 308 306 307 307 307 309 310 309 309 310 310 311 313 314 313 313 312 311 311 312 313 314 314 313 312 311 312 312 313 313 314 314 315 314 314 315 315 315 315 314 313 313 311 310 310 309 308 306 305 304 303 303 302 302 302 302 302 303 303 304 305 306 307 308 309 309 310 310 311 312 313 313 313
308 309 309 309 311 315 315 312 313 313 313 313 310 307 307 307 307 309 310 311 310 309 309 311 312 314 314 313 312 312 312 313 314 314 313 312 312 311 312 313 314 314 315 315 315 314 313 313 313 313 313 312 312 312 312 311 310 309 308 307 306 305 304 303 302 302 301 301 301 301 301 302 303 304 304 305 306 307 307 308 309 309 309 310 310 310
310 310 310 310 313 317 316 314 315 316 316 314 311 309 308 309 310 311 312 312 311 310 310 312 313 314 313 312 312 314 315 315 315 314 312 312 313 314 315 316 316 316 315 314 313 312 312 311 310 310 311 311 311 311 310 310 309 308 308 307 306 305 304 302 302 301 300 299 298 298 298 298 299 300 301 302 303 304 304 305 306 307 307 308 308 307
311 312 312 313 316 319 318 317 318 319 318 315 311 310 310 311 312 313 313 314 312 312 313 314 314 314 314 313 314 315 315 315 316 316 316 316 317 317 316 316 315 315 314 312 312 311 310 310 310 310 310 310 310 310 309 308 308 307 307 306 305 303 302 301 299 298 297 296 295 294 293 293 294 295 296 298 299 300 301 301 302 304 304 305 306 305
313 314 315 316 317 319 320 318 319 320 318 314 311 311 313 313 314 314 314 314 314 314 315 315 314 314 314 315 315 316 316 317 318 319 319 318 317 316 315 315 314 313 312 311 310 309 309 309 310 310 310 310 310 309 308 308 308 307 307 306 306 305 303 302 301 299 297 295 292 291 289 289 289 289 290 292 294 295 296 297 298 299 301 303 303 302
315 315 316 316 317 319 320 319 319 320 318 314 312 313 314 314 314 315 315 316 315 315 315 314 314 315 316 317 317 318 318 318 318 319 318 316 315 315 314 314 313 311 310 310 309 309 310 311 311 311 310 310 309 309 309 309 310 310 310 310 310 309 308 307 306 304 302 298 295 292 289 287 285 285 285 286 287 289 291 292 294 295 297 299 300 299
315 315 316 317 318 319 319 319 319 320 317 314 313 314 315 316 315 315 315 316 315 315 315 315 316 317 318 318 318 317 316 315 315 316 316 314 314 313 313 313 312 312 311 311 311 312 312 312 311 311 311 311 311 311 312 313 313 313 313 313 312 312 311 310 308 306 304 301 298 295 292 289 286 283 281 281 281 283 284 286 288 290 292 294 296 296
315 316 316 317 318 319 319 318 319 318 317 315 314 315 317 317 316 315 315 316 317 317 317 317 317 317 317 316 315 315 314 313 314 315 314 313 313 313 312 313 313 313 313 313 312 312 311 311 312 312 313 313 313 314 315 315 315 314 314 313 313 312 311 309 308 306 304 302 299 296 293 291 288 283 279 278 277 277 278 280 282 285 287 290 291 292
315 316 317 318 319 319 318 318 318 319 318 316 316 318 318 317 316 315 315 317 318 318 318 318 317 316 316 315 315 315 314 314 314 315 314 312 312 312 313 314 314 314 313 313 312 312 312 313 314 315 315 315 315 315 315 315 315 315 315 314 313 312 311 311 310 309 308 306 303 300 296 292 289 284 278 275 275 275 274 275 276 279 281 284 287 288
315 317 318 319 319 319 318 318 319 319 318 317 317 318 316 316 316 315 315 317 318 318 318 317 316 316 317 317 317 317 316 315 315 315 314 313 314 315 315 315 315 314 313 314 314 314 315 316 316 316 316 316 315 315 315 316 316 316 315 314 314 314 314 314 315 315 315 315 313 309 305 299 293 287 280 275 273 274 273 272 272 273 275 278 281 283
317 319 320 320 319 319 318 318 319 319 317 317 317 316 315 316 317 316 316 317 318 318 317 317 318 318 318 318 318 317 316 315 315 316 317 317 318 318 318 317 316 316 315 315 315 316 316 316 317 317 317 316 316 316 316 316 317 316 316 315 315 316 317 318 319 319 319 319 319 318 315 310 303 295 285 277 272 272 273 272 270 269 270 272 276 278
321 322 321 321 320 319 319 319 319 318 318 318 318 317 316 317 317 317 318 319 319 319 319 319 319 319 318 318 317 316 315 315 316 318 320 321 321 321 320 318 317 317 317 317 317 317 317 317 317 318 318 317 317 317 317 317 317 317 316 316 317 318 319 320 320 319 319 319 319 319 320 318 314 306 293 281 272 270 271 272 270 268 267 267 270 273
322 322 321 320 320 319 319 319 318 317 319 319 318 318 318 319 319 319 320 321 321 321 321 320 319 318 317 315 315 314 315 317 319 320 322 323 322 322 321 319 318 318 318 318 319 318 318 318 318 318 319 318 317 317 317 316 316 317 317 317 318 318 318 319 318 318 318 317 317 318 319 320 319 314 303 287 274 269 268 269 269 268 266 265 265 267
322 321 320 320 320 320 320 319 318 319 320 320 319 319 320 321 321 322 322 322 322 321 320 319 318 316 315 314 315 316 318 320 322 323 324 324 324 323 322 321 320 320 320 320 320 320 320 320 320 320 320 320 318 317 316 316 316 317 318 319 319 319 319 318 317 316 316 315 314 315 316 317 319 318 311 296 279 270 267 265 265 266 266 265 263 262
321 321 320 320 320 320 320 320 319 320 322 323 322 322 323 323 323 322 322 322 321 319 317 316 315 314 315 316 317 320 322 323 324 326 326 326 326 324 323 322 322 321 322 322 322 322 321 321 320 320 321 320 318 317 316 315 316 318 320 321 321 320 320 319 317 316 314 312 312 313 314 315 316 317 315 303 285 273 268 263 261 263 264 264 262 260
321 321 320 320 320 321 321 321 321 322 325 326 324 323 324 323 322 321 320 319 318 317 315 314 315 316 318 319 320 322 324 325 326 327 328 327 327 325 324 324 324 324 324 324 324 323 322 322 321 321 321 320 318 317 316 316 316 319 321 321 321 321 321 320 318 316 313 311 310 310 312 313 313 315 316 308 290 276 270 264 259 259 261 263 262 259
320 320 320 320 321 321 322 322 323 324 326 326 324 323 322 322 320 318 317 317 316 315 315 316 317 320 321 322 322 324 326 326 326 328 329 329 328 328 328 327 327 327 326 326 326 325 323 322 321 321 321 320 318 317 317 316 317 319 320 321 321 321 322 321 320 317 313 310 309 308 310 312 311 312 316 312 295 277 272 266 258 255 257 259 261 259
320 320 320 320 321 322 323 323 324 325 326 325 323 322 321 320 319 317 316 316 316 316 317 318 319 321 323 323 323 324 326 327 328 329 331 332 332 332 331 330 329 329 329 328 327 326 324 323 323 322 321 320 319 318 316 316 317 319 320 320 320 320 322 322 321 318 314 311 309 308 308 310 309 309 314 314 299 278 272 267 257 252 253 256 259 259
320 320 320 320 321 323 324 324 325 326 326 324 322 321 320 319 319 319 318 317 317 317 317 318 320 322 323 323 323 324 327 329 330 331 334 335 335 334 333 332 331 330 330 329 329 328 326 325 324 323 321 321 320 318 316 316 318 319 319 319 319 320 322 323 322 319 315 314 313 310 308 308 308 307 312 314 302 280 272 267 256 251 252 252 255 258
320 320 320 321 323 324 325 325 324 323 323 322 321 320 320 319 320 320 319 318 317 316 316 318 321 322 323 324 324 326 328 330 332 333 335 336 336 335 334 333 331 330 330 330 330 329 328 326 325 323 321 320 319 318 317 318 319 319 318 318 319 320 322 323 323 319 316 316 316 312 308 307 307 305 309 312 302 283 274 268 255 251 251 249 252 257
321 321 322 322 323 325 325 324 323 322 322 322 321 320 320 320 320 321 320 317 316 315 316 318 320 321 322 324 325 326 328 330 332 333 335 336 337 336 335 333 332 331 331 331 330 330 329 327 325 323 321 319 318 318 319 321 321 321 319 318 319 321 322 323 323 320 316 316 316 312 308 307 306 305 308 309 300 282 275 270 257 251 250 247 249 255
322 323 323 324 324 325 325 324 324 323 323 323 323 322 321 320 320 320 319 317 316 316 317 318 319 320 321 323 324 325 327 329 331 332 334 336 337 336 336 336 334 333 331 331 330 330 330 328 326 323 320 318 317 317 318 321 322 321 320 319 319 320 322 323 324 320 316 315 316 312 309 308 306 305 306 305 296 281 275 270 259 252 249 245 245 252